Home   Weather   Neuss   Past weeks

Flag for Germany Past Weather in Neuss, North Rhine-Westphalia, Germany — Yesterday and Last 2 Weeks

Now
36 °F

Clear.


Feels Like: 36 °F
Forecast: 33 / 53 °F
Wind: 1 mph from North

Location: Duesseldorf

Current Time: Apr 27, 2017 at 1:43:14 am

Latest Report: Apr 27, 2017 at 1:20 am


Visibility: 10 mi

Pressure: 29.98 "Hg

Humidity: 93%

Dew Point: 34 °F

Location of NeussLocation

Past Weather in Neuss — Graph

°F

Neuss Temperature Yesterday

Maximum temperature yesterday: 52 °F (at 3:50 pm)
Minimum temperature yesterday: 30 °F (at 5:20 am)
Average temperature yesterday: 41 °F

High & Low Weather Summary for the Past Weeks

 TemperatureHumidityPressure
High59 °F (Apr 21, 3:20 pm)100% (Apr 14, 5:50 am)30.63 "Hg (Apr 14, 5:50 am)
Low27 °F (Apr 20, 4:50 am)30% (Apr 20, 5:20 pm)29.71 "Hg (Apr 25, 12:50 am)
Average45 °F69%30.14 "Hg
* Reported Apr 12 12:20 am — Apr 27 12:20 am, Neuss, Weather by CustomWeather, © 2017

Note: Actual official high and low records may vary slightly from our data, if they occured in-between our weather recording intervals... More about our weather records

Advertising

Neuss Weather History for the Previous 24 Hours

Scroll right to see more
 ConditionsComfort  
Time TempWeatherWind HumidityBarometerVisibility
12:20 am
Thu, Apr 27
37 °FClear.1 mph87%29.98 "Hg10 mi
11:50 pm
Wed, Apr 26
37 °FClear.2 mph87%29.98 "Hg10 mi
11:20 pm39 °FClear.3 mph81%29.98 "Hg10 mi
10:50 pm41 °FPassing clouds.5 mph76%29.98 "HgN/A
10:20 pm41 °FClear.6 mph76%29.95 "Hg10 mi
9:50 pm43 °FPassing clouds.6 mph66%29.95 "HgN/A
9:20 pm41 °FPassing clouds.5 mph76%29.95 "HgN/A
8:50 pm45 °FPassing clouds.3 mph66%29.92 "HgN/A
7:50 pm48 °FPassing clouds.6 mph58%29.92 "HgN/A
7:20 pm48 °FPassing clouds.6 mph58%29.92 "HgN/A
6:50 pm46 °FSprinkles. Scattered clouds.6 mph62%29.89 "HgN/A
6:20 pm46 °FSprinkles. Scattered clouds.14 mph57%29.92 "HgN/A
5:50 pm48 °FScattered showers. Scattered clouds.13 mph54%29.89 "HgN/A
5:20 pm50 °FScattered showers. Scattered clouds.2 mph47%29.89 "HgN/A
4:50 pm48 °FSprinkles. Scattered clouds.12 mph50%29.89 "HgN/A
4:20 pm52 °FSprinkles. Scattered clouds.6 mph44%29.89 "HgN/A
3:50 pm52 °FScattered clouds.6 mph41%29.89 "HgN/A
3:20 pm50 °FPassing clouds.3 mph35%29.89 "HgN/A
2:50 pm46 °FSprinkles. Scattered clouds.14 mph57%29.92 "HgN/A
2:20 pm46 °FSprinkles. Partly sunny.20 mph57%29.89 "HgN/A
1:50 pm46 °FSprinkles. Partly sunny.7 mph53%29.89 "HgN/A
1:20 pm48 °FSprinkles. Scattered clouds.7 mph50%29.89 "HgN/A
12:50 pm48 °FPassing clouds.6 mph54%29.89 "HgN/A
12:20 pm46 °FScattered clouds.3 mph62%29.89 "HgN/A
11:50 am46 °FPartly sunny.6 mph62%29.89 "HgN/A
11:20 am45 °FPartly sunny.6 mph66%29.89 "HgN/A
10:50 am43 °FPartly sunny.7 mph71%29.89 "HgN/A
10:20 am41 °FPartly sunny.7 mph81%29.89 "HgN/A
9:50 am41 °FPartly sunny.5 mph76%29.89 "HgN/A
9:20 am39 °FPartly sunny.6 mph81%29.89 "HgN/A
8:50 am39 °FBroken clouds.7 mph75%29.89 "HgN/A
8:20 am39 °FBroken clouds.8 mph75%29.86 "HgN/A
7:50 am37 °FScattered clouds.9 mph81%29.86 "HgN/A
7:20 am36 °FPartly sunny.8 mph81%29.86 "HgN/A
6:50 am36 °FPartly sunny.8 mph81%29.86 "HgN/A
6:20 am34 °FPartly sunny.6 mph87%29.86 "HgN/A
5:50 am32 °FPassing clouds.3 mph87%29.86 "HgN/A
5:20 am30 °FClear.2 mph100%29.86 "Hg10 mi
4:50 am32 °FClear.1 mph93%29.86 "Hg10 mi
4:20 am32 °FClear.1 mph93%29.86 "Hg10 mi
3:50 am32 °FClear.2 mph93%29.86 "Hg10 mi
3:20 am32 °FClear.5 mph93%29.86 "Hg10 mi
2:50 am34 °FClear.2 mph87%29.86 "Hg10 mi
2:20 am34 °FClear.1 mph93%29.86 "Hg10 mi
1:50 am36 °FClear.5 mph87%29.86 "Hg10 mi
1:20 am36 °FClear.5 mph87%29.86 "Hg10 mi
Weather by CustomWeather, © 2017

See weather overviewHow to use our weather pages